COSMOS 2374 (GLONASS) 1 26566U 00063C 12033.24758877 -.00000016 +00000-0 +10000-3 0 09195 2 26566 064.5572 131.6419 0058642 214.8862 144.7440 02.13100347087973 COSMOS 2382 (GLONASS) 1 26987U 01053A 12032.93384028 .00000081 00000-0 10000-3 0 5513 2 26987 063.1730 245.6181 0005606 185.9637 174.0968 02.13105483 79151 COSMOS 2381 (GLONASS) 1 26988U 01053B 12035.15613219 .00000092 00000-0 10000-3 0 5532 2 26988 063.1757 245.5455 0029039 208.3606 151.5423 02.13105563 79218 COSMOS 2394 (GLONASS) 1 27617U 02060A 12033.43522428 -.00000016 +00000-0 +10000-3 0 02041 2 27617 064.7553 132.3455 0001731 126.8532 233.1775 02.13102022070915 COSMOS 2396 (GLONASS) 1 27618U 02060B 12033.79841413 -.00000015 +00000-0 +10000-3 0 02251 2 27618 064.7572 132.3088 0015290 148.9318 211.1743 02.13101028070906 COSMOS 2395 (GLONASS) 1 27619U 02060C 12033.37511777 -.00000016 +00000-0 +10000-3 0 02423 2 27619 064.7678 132.4031 0006266 277.1502 082.7925 02.13103147070892 COSMOS 2404 (GLONASS) 1 28112U 03056A 12033.51791685 .00000081 00000-0 10000-3 0 241 2 28112 063.4670 248.4456 0039428 095.8597 264.6502 02.13087725 63418 COSMOS 2402 (GLONASS) 1 28113U 03056B 12035.09544691 .00000089 00000-0 10000-3 0 9618 2 28113 063.4855 248.4129 0036351 093.8548 266.6324 02.13104902 63452 COSMOS 2403 (GLONASS) 1 28114U 03056C 12031.45864991 +.00000060 +00000-0 +10000-3 0 09072 2 28114 063.4913 248.5680 0039405 071.0266 289.4616 02.13104429063371 COSMOS 2413 (GLONASS) 1 28508U 04053A 12035.04253993 .00000090 00000-0 10000-3 0 6452 2 28508 063.3725 247.1158 0010069 168.1041 191.9996 02.13104151 55312 COSMOS 2411 (GLONASS) 1 28509U 04053B 12034.49537028 +.00000088 +00000-0 +10000-3 0 09624 2 28509 063.3667 247.1038 0004617 137.2729 234.5906 02.13102317055303 COSMOS 2412 (GLONASS) 1 28510U 04053C 12034.99253291 .00000090 00000-0 10000-3 0 6493 2 28510 063.3803 247.1510 0002982 188.1769 171.8887 02.13103295 55312 COSMOS 2419 (GLONASS) 1 28915U 05050A 12034.72880581 -.00000011 +00000-0 +00000-0 0 07096 2 28915 064.8912 131.8782 0016207 349.0830 145.4053 02.13103360047552 COSMOS 2418 (GLONASS) 1 28916U 05050B 12034.48769460 -.00000013 00000-0 10000-3 0 3904 2 28916 064.9076 131.9313 0016859 336.3186 023.6188 02.13104342 47559 COSMOS 2417 (GLONASS) 1 28917U 05050C 12034.37035919 -.00000013 +00000-0 +00000-0 0 03566 2 28917 064.8923 131.9004 0013601 139.2784 220.8386 02.13103611047541 COSMOS 2425 (GLONASS) 1 29670U 06062A 12034.67123624 -.00000029 00000-0 10000-3 0 4170 2 29670 065.8291 010.5849 0023356 341.7053 179.0869 02.13105547 39758 COSMOS 2426 (GLONASS) 1 29671U 06062B 12033.79535387 -.00000029 +00000-0 +10000-3 0 04367 2 29671 065.8451 010.6623 0016936 176.5224 264.8077 02.13103269039740 COSMOS 2424 (GLONASS) 1 29672U 06062C 12034.53703539 -.00000029 +00000-0 +10000-3 0 04446 2 29672 065.8303 010.5960 0016390 175.4384 294.8557 02.13103030039752 COSMOS 2433 (GLONASS) 1 32275U 07052A 12034.74340809 -.00000011 +00000-0 +10000-3 0 01683 2 32275 064.9025 131.6206 0001963 241.3643 174.9832 02.13102476033273 COSMOS 2432 (GLONASS) 1 32276U 07052B 12034.72920751 -.00000011 +00000-0 +10000-3 0 01547 2 32276 064.9164 131.6606 0012811 341.0477 017.8968 02.13102073033266 COSMOS 2431 (GLONASS) 1 32277U 07052C 12034.44547551 -.00000013 +00000-0 +00000-0 0 01650 2 32277 064.9186 131.6508 0018647 191.3533 233.7418 02.13201293033357 COSMOS 2434 (GLONASS) 1 32393U 07065A 12034.50053230 -.00000029 +00000-0 +00000-0 0 00045 2 32393 065.4528 010.6668 0002086 150.2137 335.0877 02.13102882031974 COSMOS 2435 (GLONASS) 1 32394U 07065B 12035.36610598 -.00000030 00000-0 10000-3 0 9143 2 32394 065.4566 010.6309 0020153 352.3391 031.8516 02.13103950 31935 COSMOS 2436 (GLONASS) 1 32395U 07065C 12034.35252574 -.00000029 +00000-0 +10000-3 0 09225 2 32395 065.4658 010.6885 0017858 345.2335 117.9784 02.13103118031900 COSMOS 2442 (GLONASS) 1 33378U 08046A 12034.76363449 -.00000011 00000-0 10000-3 0 9474 2 33378 064.8172 131.1545 0024715 335.2118 140.9176 02.13102126 26134 COSMOS 2443 (GLONASS) 1 33379U 08046B 12034.57422260 -.00000012 00000-0 10000-3 0 9337 2 33379 064.8249 131.2045 0020789 182.2122 014.5347 02.13102410 26130 COSMOS 2444 (GLONASS) 1 33380U 08046C 12035.36133024 -.00000007 00000-0 10000-3 0 9361 2 33380 064.8351 131.1978 0025712 326.5548 069.9030 02.13102623 26146 COSMOS 2447 (GLONASS) 1 33466U 08067A 12034.75910771 .00000086 00000-0 00000+0 0 8745 2 33466 064.2121 250.8953 0002380 284.5703 111.9442 02.13102060 24197 COSMOS 2449 (GLONASS) 1 33467U 08067B 12034.25513774 +.00000083 +00000-0 +00000-0 0 08820 2 33467 064.2004 250.8862 0002979 315.0318 190.4328 02.13101942024208 COSMOS 2448 (GLONASS) 1 33468U 08067C 12035.37007669 .00000088 00000-0 10000-3 0 8746 2 33468 064.2045 250.8531 0004862 332.2015 216.9400 02.13101676 24215 COSMOS 2456 (GLONASS) 1 36111U 09070A 12034.65617399 +.00000086 +00000-0 +00000-0 0 06210 2 36111 064.4392 250.9863 0005360 340.5623 067.4537 02.13101910016649 COSMOS 2457 (GLONASS) 1 36112U 09070B 12034.47255759 +.00000085 +00000-0 +00000-0 0 06072 2 36112 064.4213 250.9554 0006474 139.9084 262.4373 02.13101634016645 COSMOS 2458 (GLONASS) 1 36113U 09070C 12034.73081045 .00000086 00000-0 10000-3 0 6128 2 36113 064.4282 250.9405 0003128 039.5981 245.9783 02.13101982 16648 COSMOS 2459 (GLONASS) 1 36400U 10007A 12034.42811414 -.00000013 +00000-0 +10000-3 0 05496 2 36400 064.8027 130.9957 0031071 354.3704 045.5944 02.13102610014994 COSMOS 2461 (GLONASS) 1 36401U 10007B 12034.67319419 -.00000012 00000-0 10000-3 0 5480 2 36401 064.7952 130.9831 0005514 096.1351 042.0916 02.13102589 14990 COSMOS 2460 (GLONASS) 1 36402U 10007C 12034.54279858 -.00000013 00000-0 10000-3 0 5536 2 36402 064.7842 130.9841 0001252 169.7570 272.6159 02.13102312 14999 COSMOS 2466 (GLONASS) 1 37137U 10041A 12034.67775941 -.00000029 00000-0 00000+0 0 4124 2 37137 065.0282 011.5951 0020593 160.5856 324.7312 02.13102571 11071 COSMOS 2465 (GLONASS) 1 37138U 10041B 12034.75460484 -.00000029 +00000-0 +00000-0 0 04241 2 37138 065.0441 011.6342 0034845 171.6745 193.1367 02.13102946011073 COSMOS 2464 (GLONASS) 1 37139U 10041C 12034.72730282 -.00000029 +00000-0 +00000-0 0 04076 2 37139 065.0463 011.6225 0020394 006.1155 112.4699 02.13102844011078